![]() |
EMODnet Physics ERDDAP
Easier access to scientific data |
log in|
Brought to you by EMODnet Physics |
| Dataset Title: | NDBC - Collection of dew point temperature (DEWT) TimeSeries - IN SITU MultiPointTimeSeriesObservation
|
| Institution: | NDBC (Dataset ID: TS_DEWT_NDBC) |
| Information: | Summary
| License
| FGDC
| ISO 19115
| Metadata
| Background
| Subset
| Data Access Form
| Make a graph
|
| Name | Last modified | Size | Description | |
|---|---|---|---|---|
| Parent Directory | - | - | ||
| 46022_TS_DEWT_011982.nc | 15-Nov-2024 17:16 | 447008 | ||
| 46022_TS_DEWT_011983.nc | 15-Nov-2024 18:10 | 447939 | ||
| 46022_TS_DEWT_011984.nc | 15-Nov-2024 18:48 | 447576 | ||
| 46022_TS_DEWT_011985.nc | 15-Nov-2024 19:24 | 438866 | ||
| 46022_TS_DEWT_011986.nc | 15-Nov-2024 19:57 | 447950 | ||
| 46022_TS_DEWT_011988.nc | 15-Nov-2024 21:10 | 448716 | ||
| 46022_TS_DEWT_011989.nc | 15-Nov-2024 22:00 | 435946 | ||
| 46022_TS_DEWT_011990.nc | 15-Nov-2024 22:49 | 448138 | ||
| 46022_TS_DEWT_011992.nc | 16-Nov-2024 00:16 | 448586 | ||
| 46022_TS_DEWT_011993.nc | 16-Nov-2024 01:09 | 447790 | ||
| 46022_TS_DEWT_011995.nc | 16-Nov-2024 02:40 | 448153 | ||
| 46022_TS_DEWT_011996.nc | 16-Nov-2024 03:12 | 447477 | ||
| 46022_TS_DEWT_011997.nc | 16-Nov-2024 03:33 | 449810 | ||
| 46022_TS_DEWT_011998.nc | 16-Nov-2024 04:25 | 451251 | ||
| 46022_TS_DEWT_011999.nc | 16-Nov-2024 04:59 | 451425 | ||
| 46022_TS_DEWT_012000.nc | 16-Nov-2024 05:47 | 434247 | ||
| 46022_TS_DEWT_012001.nc | 16-Nov-2024 06:22 | 451497 | ||
| 46022_TS_DEWT_012002.nc | 16-Nov-2024 07:09 | 451626 | ||
| 46022_TS_DEWT_012003.nc | 16-Nov-2024 07:52 | 450101 | ||
| 46022_TS_DEWT_012004.nc | 16-Nov-2024 08:42 | 450469 | ||
| 46022_TS_DEWT_012005.nc | 16-Nov-2024 09:41 | 451381 | ||
| 46022_TS_DEWT_012006.nc | 16-Nov-2024 10:42 | 450308 | ||
| 46022_TS_DEWT_012007.nc | 16-Nov-2024 11:33 | 450684 | ||
| 46022_TS_DEWT_012008.nc | 16-Nov-2024 12:12 | 450340 | ||
| 46022_TS_DEWT_012009.nc | 16-Nov-2024 13:02 | 449408 | ||
| 46022_TS_DEWT_012010.nc | 16-Nov-2024 13:55 | 449861 | ||
| 46022_TS_DEWT_012011.nc | 16-Nov-2024 14:33 | 449359 | ||
| 46022_TS_DEWT_012012.nc | 16-Nov-2024 15:07 | 450295 | ||
| 46022_TS_DEWT_012013.nc | 16-Nov-2024 15:56 | 449632 | ||
| 46022_TS_DEWT_012014.nc | 16-Nov-2024 16:39 | 449908 | ||
| 46022_TS_DEWT_012016.nc | 16-Nov-2024 17:30 | 450039 | ||
| 46022_TS_DEWT_012017.nc | 16-Nov-2024 18:16 | 448769 | ||
| 46022_TS_DEWT_012018.nc | 16-Nov-2024 18:56 | 449447 | ||
| 46022_TS_DEWT_012019.nc | 16-Nov-2024 19:46 | 450160 | ||
| 46022_TS_DEWT_012020.nc | 16-Nov-2024 20:24 | 448869 | ||
| 46022_TS_DEWT_012021.nc | 16-Nov-2024 21:15 | 450806 | ||
| 46022_TS_DEWT_012022.nc | 16-Nov-2024 22:12 | 449609 | ||
| 46022_TS_DEWT_012023.nc | 16-Nov-2024 23:04 | 450611 | ||
| 46022_TS_DEWT_012024.nc | 16-Nov-2024 23:13 | 450924 | ||
| 46022_TS_DEWT_012025.nc | 07-Feb-2025 12:49 | 450111 | ||
| 46022_TS_DEWT_012026.nc | 02-Feb-2026 13:56 | 450776 | ||
| 46022_TS_DEWT_021982.nc | 15-Nov-2024 17:20 | 449956 | ||
| 46022_TS_DEWT_021983.nc | 15-Nov-2024 18:14 | 450273 | ||
| 46022_TS_DEWT_021984.nc | 15-Nov-2024 18:51 | 446812 | ||
| 46022_TS_DEWT_021985.nc | 15-Nov-2024 19:27 | 450434 | ||
| 46022_TS_DEWT_021986.nc | 15-Nov-2024 20:00 | 449847 | ||
| 46022_TS_DEWT_021988.nc | 15-Nov-2024 21:14 | 449832 | ||
| 46022_TS_DEWT_021989.nc | 15-Nov-2024 22:04 | 449466 | ||
| 46022_TS_DEWT_021990.nc | 15-Nov-2024 22:53 | 449629 | ||
| 46022_TS_DEWT_021991.nc | 15-Nov-2024 23:27 | 450083 | ||
| 46022_TS_DEWT_021992.nc | 16-Nov-2024 00:21 | 449697 | ||
| 46022_TS_DEWT_021993.nc | 16-Nov-2024 01:13 | 449732 | ||
| 46022_TS_DEWT_021995.nc | 16-Nov-2024 02:42 | 449228 | ||
| 46022_TS_DEWT_021996.nc | 16-Nov-2024 03:16 | 448679 | ||
| 46022_TS_DEWT_021997.nc | 16-Nov-2024 03:38 | 436163 | ||
| 46022_TS_DEWT_021998.nc | 16-Nov-2024 04:30 | 449921 | ||
| 46022_TS_DEWT_021999.nc | 16-Nov-2024 05:01 | 449302 | ||
| 46022_TS_DEWT_022001.nc | 16-Nov-2024 06:25 | 447627 | ||
| 46022_TS_DEWT_022002.nc | 16-Nov-2024 07:13 | 451347 | ||
| 46022_TS_DEWT_022003.nc | 16-Nov-2024 07:56 | 451628 | ||
| 46022_TS_DEWT_022004.nc | 16-Nov-2024 08:48 | 450407 | ||
| 46022_TS_DEWT_022005.nc | 16-Nov-2024 09:47 | 451738 | ||
| 46022_TS_DEWT_022006.nc | 16-Nov-2024 10:46 | 451320 | ||
| 46022_TS_DEWT_022007.nc | 16-Nov-2024 11:37 | 450989 | ||
| 46022_TS_DEWT_022008.nc | 16-Nov-2024 12:16 | 451376 | ||
| 46022_TS_DEWT_022009.nc | 16-Nov-2024 13:06 | 436534 | ||
| 46022_TS_DEWT_022010.nc | 16-Nov-2024 13:59 | 450160 | ||
| 46022_TS_DEWT_022011.nc | 16-Nov-2024 14:38 | 450213 | ||
| 46022_TS_DEWT_022012.nc | 16-Nov-2024 15:11 | 450230 | ||
| 46022_TS_DEWT_022013.nc | 16-Nov-2024 16:00 | 450267 | ||
| 46022_TS_DEWT_022014.nc | 16-Nov-2024 16:42 | 450323 | ||
| 46022_TS_DEWT_022016.nc | 16-Nov-2024 17:34 | 451308 | ||
| 46022_TS_DEWT_022017.nc | 16-Nov-2024 18:20 | 450851 | ||
| 46022_TS_DEWT_022018.nc | 16-Nov-2024 19:00 | 450844 | ||
| 46022_TS_DEWT_022019.nc | 16-Nov-2024 19:51 | 420861 | ||
| 46022_TS_DEWT_022020.nc | 16-Nov-2024 20:29 | 447687 | ||
| 46022_TS_DEWT_022021.nc | 16-Nov-2024 21:19 | 438785 | ||
| 46022_TS_DEWT_022022.nc | 16-Nov-2024 22:17 | 450799 | ||
| 46022_TS_DEWT_022023.nc | 16-Nov-2024 23:07 | 442221 | ||
| 46022_TS_DEWT_022025.nc | 01-Mar-2025 09:07 | 450041 | ||
| 46022_TS_DEWT_022026.nc | 01-Mar-2026 12:36 | 450369 | ||
| 46022_TS_DEWT_031982.nc | 15-Nov-2024 17:24 | 438742 | ||
| 46022_TS_DEWT_031983.nc | 15-Nov-2024 18:18 | 449536 | ||
| 46022_TS_DEWT_031984.nc | 15-Nov-2024 18:54 | 450312 | ||
| 46022_TS_DEWT_031985.nc | 15-Nov-2024 19:30 | 449192 | ||
| 46022_TS_DEWT_031986.nc | 15-Nov-2024 20:04 | 434928 | ||
| 46022_TS_DEWT_031987.nc | 15-Nov-2024 20:34 | 436228 | ||
| 46022_TS_DEWT_031988.nc | 15-Nov-2024 21:18 | 449137 | ||
| 46022_TS_DEWT_031989.nc | 15-Nov-2024 22:08 | 448813 | ||
| 46022_TS_DEWT_031990.nc | 15-Nov-2024 22:55 | 447553 | ||
| 46022_TS_DEWT_031991.nc | 15-Nov-2024 23:31 | 451215 | ||
| 46022_TS_DEWT_031992.nc | 16-Nov-2024 00:26 | 450874 | ||
| 46022_TS_DEWT_031993.nc | 16-Nov-2024 01:17 | 451089 | ||
| 46022_TS_DEWT_031994.nc | 16-Nov-2024 01:59 | 450792 | ||
| 46022_TS_DEWT_031995.nc | 16-Nov-2024 02:45 | 441305 | ||
| 46022_TS_DEWT_031996.nc | 16-Nov-2024 03:20 | 451653 | ||
| 46022_TS_DEWT_031997.nc | 16-Nov-2024 03:42 | 451846 | ||
| 46022_TS_DEWT_031998.nc | 16-Nov-2024 04:34 | 451092 | ||
| 46022_TS_DEWT_031999.nc | 16-Nov-2024 05:04 | 435278 | ||
| 46022_TS_DEWT_032001.nc | 16-Nov-2024 06:30 | 450511 | ||
| 46022_TS_DEWT_032002.nc | 16-Nov-2024 07:16 | 450026 | ||
| 46022_TS_DEWT_032003.nc | 16-Nov-2024 08:00 | 449209 | ||
| 46022_TS_DEWT_032004.nc | 16-Nov-2024 08:52 | 449934 | ||
| 46022_TS_DEWT_032005.nc | 16-Nov-2024 09:53 | 449309 | ||
| 46022_TS_DEWT_032006.nc | 16-Nov-2024 10:51 | 450199 | ||
| 46022_TS_DEWT_032007.nc | 16-Nov-2024 11:41 | 432729 | ||
| 46022_TS_DEWT_032008.nc | 16-Nov-2024 12:20 | 449621 | ||
| 46022_TS_DEWT_032009.nc | 16-Nov-2024 13:10 | 451020 | ||
| 46022_TS_DEWT_032011.nc | 16-Nov-2024 14:43 | 449687 | ||
| 46022_TS_DEWT_032012.nc | 16-Nov-2024 15:14 | 449427 | ||
| 46022_TS_DEWT_032013.nc | 16-Nov-2024 16:04 | 449267 | ||
| 46022_TS_DEWT_032015.nc | 16-Nov-2024 16:57 | 450535 | ||
| 46022_TS_DEWT_032016.nc | 16-Nov-2024 17:38 | 449718 | ||
| 46022_TS_DEWT_032017.nc | 16-Nov-2024 18:24 | 449941 | ||
| 46022_TS_DEWT_032018.nc | 16-Nov-2024 19:04 | 451489 | ||
| 46022_TS_DEWT_032019.nc | 16-Nov-2024 19:55 | 450457 | ||
| 46022_TS_DEWT_032020.nc | 16-Nov-2024 20:34 | 445509 | ||
| 46022_TS_DEWT_032021.nc | 16-Nov-2024 21:24 | 440518 | ||
| 46022_TS_DEWT_032022.nc | 16-Nov-2024 22:22 | 448468 | ||
| 46022_TS_DEWT_032025.nc | 02-Apr-2025 07:18 | 450613 | ||
| 46022_TS_DEWT_032026.nc | 24-Mar-2026 13:17 | 450775 | ||
| 46022_TS_DEWT_041982.nc | 15-Nov-2024 17:29 | 450028 | ||
| 46022_TS_DEWT_041983.nc | 15-Nov-2024 18:22 | 450840 | ||
| 46022_TS_DEWT_041984.nc | 15-Nov-2024 18:57 | 1832835 | ||
| 46022_TS_DEWT_041985.nc | 15-Nov-2024 19:33 | 1830101 | ||
| 46022_TS_DEWT_041986.nc | 15-Nov-2024 20:07 | 1651349 | ||
| 46022_TS_DEWT_041987.nc | 15-Nov-2024 20:37 | 1825998 | ||
| 46022_TS_DEWT_041988.nc | 15-Nov-2024 21:22 | 1677828 | ||
| 46022_TS_DEWT_041989.nc | 15-Nov-2024 22:12 | 1837256 | ||
| 46022_TS_DEWT_041990.nc | 15-Nov-2024 22:58 | 1837157 | ||
| 46022_TS_DEWT_041991.nc | 15-Nov-2024 23:34 | 1832428 | ||
| 46022_TS_DEWT_041992.nc | 16-Nov-2024 00:30 | 1835388 | ||
| 46022_TS_DEWT_041994.nc | 16-Nov-2024 02:04 | 4962911 | ||
| 46022_TS_DEWT_041995.nc | 16-Nov-2024 02:48 | 3557028 | ||
| 46022_TS_DEWT_041996.nc | 16-Nov-2024 03:24 | 1649275 | ||
| 46022_TS_DEWT_041997.nc | 16-Nov-2024 03:46 | 1663439 | ||
| 46022_TS_DEWT_041999.nc | 16-Nov-2024 05:09 | 1649925 | ||
| 46022_TS_DEWT_042001.nc | 16-Nov-2024 06:35 | 1652448 | ||
| 46022_TS_DEWT_042002.nc | 16-Nov-2024 07:19 | 1648527 | ||
| 46022_TS_DEWT_042003.nc | 16-Nov-2024 08:05 | 1667046 | ||
| 46022_TS_DEWT_042004.nc | 16-Nov-2024 08:56 | 1654809 | ||
| 46022_TS_DEWT_042005.nc | 16-Nov-2024 09:58 | 1655843 | ||
| 46022_TS_DEWT_042006.nc | 16-Nov-2024 10:55 | 1660716 | ||
| 46022_TS_DEWT_042007.nc | 16-Nov-2024 11:44 | 3200455 | ||
| 46022_TS_DEWT_042008.nc | 16-Nov-2024 12:24 | 4825341 | ||
| 46022_TS_DEWT_042009.nc | 16-Nov-2024 13:14 | 1706836 | ||
| 46022_TS_DEWT_042010.nc | 16-Nov-2024 14:02 | 1665233 | ||
| 46022_TS_DEWT_042011.nc | 16-Nov-2024 14:47 | 1822707 | ||
| 46022_TS_DEWT_042012.nc | 16-Nov-2024 15:18 | 1825446 | ||
| 46022_TS_DEWT_042013.nc | 16-Nov-2024 16:09 | 1831266 | ||
| 46022_TS_DEWT_042015.nc | 16-Nov-2024 16:58 | 1829758 | ||
| 46022_TS_DEWT_042016.nc | 16-Nov-2024 17:42 | 1834374 | ||
| 46022_TS_DEWT_042017.nc | 16-Nov-2024 18:26 | 1312759 | ||
| 46022_TS_DEWT_042018.nc | 16-Nov-2024 19:07 | 1830219 | ||
| 46022_TS_DEWT_042019.nc | 16-Nov-2024 19:59 | 1835251 | ||
| 46022_TS_DEWT_042020.nc | 16-Nov-2024 20:38 | 4159952 | ||
| 46022_TS_DEWT_042021.nc | 16-Nov-2024 21:28 | 3897664 | ||
| 46022_TS_DEWT_042022.nc | 16-Nov-2024 22:26 | 1679470 | ||
| 46022_TS_DEWT_042025.nc | 01-May-2025 04:39 | 1659697 | ||
| 46022_TS_DEWT_051982.nc | 15-Nov-2024 17:34 | 1665686 | ||
| 46022_TS_DEWT_051983.nc | 15-Nov-2024 18:26 | 1673086 | ||
| 46022_TS_DEWT_051984.nc | 15-Nov-2024 19:00 | 1675420 | ||
| 46022_TS_DEWT_051985.nc | 15-Nov-2024 19:36 | 1656485 | ||
| 46022_TS_DEWT_051986.nc | 15-Nov-2024 20:09 | 1683636 | ||
| 46022_TS_DEWT_051987.nc | 15-Nov-2024 20:43 | 1680720 | ||
| 46022_TS_DEWT_051988.nc | 15-Nov-2024 21:26 | 1677395 | ||
| 46022_TS_DEWT_051989.nc | 15-Nov-2024 22:16 | 1678369 | ||
| 46022_TS_DEWT_051990.nc | 15-Nov-2024 23:01 | 4812256 | ||
| 46022_TS_DEWT_051991.nc | 15-Nov-2024 23:38 | 1833079 | ||
| 46022_TS_DEWT_051992.nc | 16-Nov-2024 00:34 | 1667388 | ||
| 46022_TS_DEWT_051993.nc | 16-Nov-2024 01:22 | 1787867 | ||
| 46022_TS_DEWT_051994.nc | 16-Nov-2024 02:08 | 1833364 | ||
| 46022_TS_DEWT_051995.nc | 16-Nov-2024 02:51 | 1833106 | ||
| 46022_TS_DEWT_051996.nc | 16-Nov-2024 03:29 | 1834760 | ||
| 46022_TS_DEWT_051997.nc | 16-Nov-2024 03:50 | 1837120 | ||
| 46022_TS_DEWT_051999.nc | 16-Nov-2024 05:12 | 1825093 | ||
| 46022_TS_DEWT_052001.nc | 16-Nov-2024 06:40 | 1835776 | ||
| 46022_TS_DEWT_052002.nc | 16-Nov-2024 07:23 | 1837519 | ||
| 46022_TS_DEWT_052003.nc | 16-Nov-2024 08:09 | 5570177 | ||
| 46022_TS_DEWT_052004.nc | 16-Nov-2024 09:00 | 1648276 | ||
| 46022_TS_DEWT_052005.nc | 16-Nov-2024 10:03 | 1676090 | ||
| 46022_TS_DEWT_052006.nc | 16-Nov-2024 11:00 | 1633541 | ||
| 46022_TS_DEWT_052007.nc | 16-Nov-2024 11:47 | 1677544 | ||
| 46022_TS_DEWT_052008.nc | 16-Nov-2024 12:28 | 1675186 | ||
| 46022_TS_DEWT_052009.nc | 16-Nov-2024 13:19 | 1677982 | ||
| 46022_TS_DEWT_052011.nc | 16-Nov-2024 14:52 | 1677969 | ||
| 46022_TS_DEWT_052012.nc | 16-Nov-2024 15:22 | 1677558 | ||
| 46022_TS_DEWT_052013.nc | 16-Nov-2024 16:13 | 1674405 | ||
| 46022_TS_DEWT_052015.nc | 16-Nov-2024 17:02 | 1674913 | ||
| 46022_TS_DEWT_052016.nc | 16-Nov-2024 17:45 | 2837953 | ||
| 46022_TS_DEWT_052017.nc | 16-Nov-2024 18:30 | 1830543 | ||
| 46022_TS_DEWT_052018.nc | 16-Nov-2024 19:11 | 1824876 | ||
| 46022_TS_DEWT_052019.nc | 16-Nov-2024 20:05 | 1649730 | ||
| 46022_TS_DEWT_052020.nc | 16-Nov-2024 20:43 | 1825249 | ||
| 46022_TS_DEWT_052021.nc | 16-Nov-2024 21:34 | 1827697 | ||
| 46022_TS_DEWT_052022.nc | 16-Nov-2024 22:31 | 1831287 | ||
| 46022_TS_DEWT_052024.nc | 04-Jan-2025 05:53 | 1649400 | ||
| 46022_TS_DEWT_052025.nc | 01-Jun-2025 04:28 | 1836066 | ||
| 46022_TS_DEWT_061982.nc | 15-Nov-2024 17:38 | 1835028 | ||
| 46022_TS_DEWT_061983.nc | 15-Nov-2024 18:30 | 1830080 | ||
| 46022_TS_DEWT_061984.nc | 15-Nov-2024 19:03 | 1632158 | ||
| 46022_TS_DEWT_061985.nc | 15-Nov-2024 19:39 | 1829186 | ||
| 46022_TS_DEWT_061986.nc | 15-Nov-2024 20:14 | 1827529 | ||
| 46022_TS_DEWT_061987.nc | 15-Nov-2024 20:47 | 1822385 | ||
| 46022_TS_DEWT_061988.nc | 15-Nov-2024 21:31 | 1833582 | ||
| 46022_TS_DEWT_061989.nc | 15-Nov-2024 22:20 | 1671116 | ||
| 46022_TS_DEWT_061990.nc | 15-Nov-2024 23:05 | 1830841 | ||
| 46022_TS_DEWT_061991.nc | 15-Nov-2024 23:44 | 1828514 | ||
| 46022_TS_DEWT_061992.nc | 16-Nov-2024 00:39 | 1650769 | ||
| 46022_TS_DEWT_061993.nc | 16-Nov-2024 01:27 | 1835124 | ||
| 46022_TS_DEWT_061994.nc | 16-Nov-2024 02:13 | 1832917 | ||
| 46022_TS_DEWT_061995.nc | 16-Nov-2024 02:53 | 3537578 | ||
| 46022_TS_DEWT_061997.nc | 16-Nov-2024 03:55 | 1669796 | ||
| 46022_TS_DEWT_061999.nc | 16-Nov-2024 05:16 | 1680832 | ||
| 46022_TS_DEWT_062000.nc | 16-Nov-2024 05:51 | 1666508 | ||
| 46022_TS_DEWT_062001.nc | 16-Nov-2024 06:44 | 1674089 | ||
| 46022_TS_DEWT_062002.nc | 16-Nov-2024 07:27 | 1672042 | ||
| 46022_TS_DEWT_062003.nc | 16-Nov-2024 08:12 | 1674668 | ||
| 46022_TS_DEWT_062004.nc | 16-Nov-2024 09:05 | 1670162 | ||
| 46022_TS_DEWT_062005.nc | 16-Nov-2024 10:08 | 1674489 | ||
| 46022_TS_DEWT_062006.nc | 16-Nov-2024 11:06 | 1676971 | ||
| 46022_TS_DEWT_062007.nc | 16-Nov-2024 11:50 | 1674556 | ||
| 46022_TS_DEWT_062008.nc | 16-Nov-2024 12:31 | 5185433 | ||
| 46022_TS_DEWT_062009.nc | 16-Nov-2024 13:24 | 1826207 | ||
| 46022_TS_DEWT_062011.nc | 16-Nov-2024 14:56 | 1833720 | ||
| 46022_TS_DEWT_062012.nc | 16-Nov-2024 15:26 | 1672870 | ||
| 46022_TS_DEWT_062013.nc | 16-Nov-2024 16:17 | 1828358 | ||
| 46022_TS_DEWT_062015.nc | 16-Nov-2024 17:05 | 1830707 | ||
| 46022_TS_DEWT_062016.nc | 16-Nov-2024 17:49 | 1834630 | ||
| 46022_TS_DEWT_062017.nc | 16-Nov-2024 18:34 | 1829268 | ||
| 46022_TS_DEWT_062018.nc | 16-Nov-2024 19:14 | 1834768 | ||
| 46022_TS_DEWT_062019.nc | 16-Nov-2024 20:09 | 1747638 | ||
| 46022_TS_DEWT_062020.nc | 16-Nov-2024 20:47 | 1833605 | ||
| 46022_TS_DEWT_062021.nc | 16-Nov-2024 21:39 | 5796270 | ||
| 46022_TS_DEWT_062022.nc | 16-Nov-2024 22:35 | 1673085 | ||
| 46022_TS_DEWT_062024.nc | 17-Jan-2025 12:08 | 1673751 | ||
| 46022_TS_DEWT_062025.nc | 01-Jul-2025 08:42 | 1646927 | ||
| 46022_TS_DEWT_071982.nc | 15-Nov-2024 17:42 | 1673076 | ||
| 46022_TS_DEWT_071983.nc | 15-Nov-2024 18:34 | 1674593 | ||
| 46022_TS_DEWT_071984.nc | 15-Nov-2024 19:06 | 1681542 | ||
| 46022_TS_DEWT_071985.nc | 15-Nov-2024 19:41 | 1662145 | ||
| 46022_TS_DEWT_071986.nc | 15-Nov-2024 20:18 | 1678273 | ||
| 46022_TS_DEWT_071987.nc | 15-Nov-2024 20:50 | 1680955 | ||
| 46022_TS_DEWT_071988.nc | 15-Nov-2024 21:35 | 1676236 | ||
| 46022_TS_DEWT_071989.nc | 15-Nov-2024 22:24 | 5964899 | ||
| 46022_TS_DEWT_071990.nc | 15-Nov-2024 23:09 | 5608126 | ||
| 46022_TS_DEWT_071991.nc | 15-Nov-2024 23:49 | 1829461 | ||
| 46022_TS_DEWT_071992.nc | 16-Nov-2024 00:43 | 1638548 | ||
| 46022_TS_DEWT_071993.nc | 16-Nov-2024 01:32 | 1831037 | ||
| 46022_TS_DEWT_071994.nc | 16-Nov-2024 02:17 | 1829840 | ||
| 46022_TS_DEWT_071995.nc | 16-Nov-2024 02:55 | 1668092 | ||
| 46022_TS_DEWT_071997.nc | 16-Nov-2024 03:59 | 1831848 | ||
| 46022_TS_DEWT_071998.nc | 16-Nov-2024 04:38 | 1833464 | ||
| 46022_TS_DEWT_071999.nc | 16-Nov-2024 05:19 | 1831559 | ||
| 46022_TS_DEWT_072000.nc | 16-Nov-2024 05:55 | 1675951 | ||
| 46022_TS_DEWT_072001.nc | 16-Nov-2024 06:47 | 1804941 | ||
| 46022_TS_DEWT_072002.nc | 16-Nov-2024 07:31 | 5659724 | ||
| 46022_TS_DEWT_072003.nc | 16-Nov-2024 08:16 | 5415338 | ||
| 46022_TS_DEWT_072004.nc | 16-Nov-2024 09:09 | 450089 | ||
| 46022_TS_DEWT_072005.nc | 16-Nov-2024 10:13 | 450900 | ||
| 46022_TS_DEWT_072006.nc | 16-Nov-2024 11:10 | 450984 | ||
| 46022_TS_DEWT_072007.nc | 16-Nov-2024 11:53 | 631077 | ||
| 46022_TS_DEWT_072008.nc | 16-Nov-2024 12:36 | 629786 | ||
| 46022_TS_DEWT_072009.nc | 16-Nov-2024 13:29 | 630982 | ||
| 46022_TS_DEWT_072010.nc | 16-Nov-2024 14:07 | 448188 | ||
| 46022_TS_DEWT_072011.nc | 16-Nov-2024 15:00 | 449465 | ||
| 46022_TS_DEWT_072012.nc | 16-Nov-2024 15:29 | 448222 | ||
| 46022_TS_DEWT_072013.nc | 16-Nov-2024 16:21 | 478034 | ||
| 46022_TS_DEWT_072014.nc | 16-Nov-2024 16:47 | 476984 | ||
| 46022_TS_DEWT_072015.nc | 16-Nov-2024 17:09 | 478667 | ||
| 46022_TS_DEWT_072016.nc | 16-Nov-2024 17:54 | 449822 | ||
| 46022_TS_DEWT_072017.nc | 16-Nov-2024 18:37 | 451049 | ||
| 46022_TS_DEWT_072018.nc | 16-Nov-2024 19:17 | 451414 | ||
| 46022_TS_DEWT_072020.nc | 16-Nov-2024 20:51 | 629564 | ||
| 46022_TS_DEWT_072021.nc | 16-Nov-2024 21:44 | 628790 | ||
| 46022_TS_DEWT_072022.nc | 16-Nov-2024 22:40 | 629741 | ||
| 46022_TS_DEWT_072025.nc | 01-Aug-2025 04:22 | 450194 | ||
| 46022_TS_DEWT_081982.nc | 15-Nov-2024 17:46 | 450003 | ||
| 46022_TS_DEWT_081983.nc | 15-Nov-2024 18:38 | 443472 | ||
| 46022_TS_DEWT_081984.nc | 15-Nov-2024 19:09 | 479028 | ||
| 46022_TS_DEWT_081985.nc | 15-Nov-2024 19:42 | 480983 | ||
| 46022_TS_DEWT_081986.nc | 15-Nov-2024 20:22 | 434943 | ||
| 46022_TS_DEWT_081987.nc | 15-Nov-2024 20:53 | 450198 | ||
| 46022_TS_DEWT_081988.nc | 15-Nov-2024 21:39 | 450708 | ||
| 46022_TS_DEWT_081989.nc | 15-Nov-2024 22:28 | 450370 | ||
| 46022_TS_DEWT_081991.nc | 15-Nov-2024 23:54 | 629549 | ||
| 46022_TS_DEWT_081992.nc | 16-Nov-2024 00:48 | 629444 | ||
| 46022_TS_DEWT_081993.nc | 16-Nov-2024 01:36 | 449526 | ||
| 46022_TS_DEWT_081994.nc | 16-Nov-2024 02:21 | 449794 | ||
| 46022_TS_DEWT_081995.nc | 16-Nov-2024 02:58 | 450015 | ||
| 46022_TS_DEWT_081997.nc | 16-Nov-2024 04:04 | 450070 | ||
| 46022_TS_DEWT_081998.nc | 16-Nov-2024 04:41 | 481089 | ||
| 46022_TS_DEWT_081999.nc | 16-Nov-2024 05:23 | 482516 | ||
| 46022_TS_DEWT_082000.nc | 16-Nov-2024 05:59 | 451189 | ||
| 46022_TS_DEWT_082001.nc | 16-Nov-2024 06:50 | 445140 | ||
| 46022_TS_DEWT_082002.nc | 16-Nov-2024 07:33 | 450577 | ||
| 46022_TS_DEWT_082003.nc | 16-Nov-2024 08:20 | 451047 | ||
| 46022_TS_DEWT_082004.nc | 16-Nov-2024 09:15 | 452888 | ||
| 46022_TS_DEWT_082005.nc | 16-Nov-2024 10:18 | 629002 | ||
| 46022_TS_DEWT_082006.nc | 16-Nov-2024 11:15 | 482920 | ||
| 46022_TS_DEWT_082007.nc | 16-Nov-2024 11:57 | 451453 | ||
| 46022_TS_DEWT_082008.nc | 16-Nov-2024 12:41 | 424038 | ||
| 46022_TS_DEWT_082009.nc | 16-Nov-2024 13:33 | 451105 | ||
| 46022_TS_DEWT_082010.nc | 16-Nov-2024 14:11 | 472198 | ||
| 46022_TS_DEWT_082011.nc | 16-Nov-2024 15:04 | 627953 | ||
| 46022_TS_DEWT_082012.nc | 16-Nov-2024 15:34 | 628953 | ||
| 46022_TS_DEWT_082013.nc | 16-Nov-2024 16:23 | 449306 | ||
| 46022_TS_DEWT_082014.nc | 16-Nov-2024 16:50 | 440072 | ||
| 46022_TS_DEWT_082015.nc | 16-Nov-2024 17:12 | 450217 | ||
| 46022_TS_DEWT_082016.nc | 16-Nov-2024 17:58 | 481324 | ||
| 46022_TS_DEWT_082017.nc | 16-Nov-2024 18:40 | 481452 | ||
| 46022_TS_DEWT_082018.nc | 16-Nov-2024 19:22 | 479995 | ||
| 46022_TS_DEWT_082020.nc | 16-Nov-2024 20:54 | 450437 | ||
| 46022_TS_DEWT_082021.nc | 16-Nov-2024 21:49 | 450222 | ||
| 46022_TS_DEWT_082022.nc | 16-Nov-2024 22:44 | 445039 | ||
| 46022_TS_DEWT_082024.nc | 17-Jan-2025 12:10 | 628911 | ||
| 46022_TS_DEWT_082025.nc | 01-Sep-2025 04:23 | 628866 | ||
| 46022_TS_DEWT_091982.nc | 15-Nov-2024 17:51 | 630610 | ||
| 46022_TS_DEWT_091983.nc | 15-Nov-2024 18:40 | 449638 | ||
| 46022_TS_DEWT_091984.nc | 15-Nov-2024 19:12 | 450069 | ||
| 46022_TS_DEWT_091985.nc | 15-Nov-2024 19:45 | 448195 | ||
| 46022_TS_DEWT_091986.nc | 15-Nov-2024 20:24 | 480632 | ||
| 46022_TS_DEWT_091987.nc | 15-Nov-2024 20:56 | 480292 | ||
| 46022_TS_DEWT_091988.nc | 15-Nov-2024 21:43 | 481667 | ||
| 46022_TS_DEWT_091989.nc | 15-Nov-2024 22:32 | 450676 | ||
| 46022_TS_DEWT_091990.nc | 15-Nov-2024 23:12 | 450784 | ||
| 46022_TS_DEWT_091991.nc | 15-Nov-2024 23:58 | 451147 | ||
| 46022_TS_DEWT_091992.nc | 16-Nov-2024 00:52 | 630830 | ||
| 46022_TS_DEWT_091993.nc | 16-Nov-2024 01:41 | 628781 | ||
| 46022_TS_DEWT_091994.nc | 16-Nov-2024 02:25 | 630234 | ||
| 46022_TS_DEWT_091995.nc | 16-Nov-2024 03:02 | 1625131 | ||
| 46022_TS_DEWT_091997.nc | 16-Nov-2024 04:08 | 1474576 | ||
| 46022_TS_DEWT_091998.nc | 16-Nov-2024 04:44 | 1475620 | ||
| 46022_TS_DEWT_091999.nc | 16-Nov-2024 05:27 | 1148494 | ||
| 46022_TS_DEWT_092000.nc | 16-Nov-2024 06:04 | 1624938 | ||
| 46022_TS_DEWT_092001.nc | 16-Nov-2024 06:54 | 1626021 | ||
| 46022_TS_DEWT_092002.nc | 16-Nov-2024 07:37 | 1625600 | ||
| 46022_TS_DEWT_092003.nc | 16-Nov-2024 08:25 | 1456377 | ||
| 46022_TS_DEWT_092004.nc | 16-Nov-2024 09:19 | 1626783 | ||
| 46022_TS_DEWT_092005.nc | 16-Nov-2024 10:23 | 1626500 | ||
| 46022_TS_DEWT_092006.nc | 16-Nov-2024 11:19 | 1625043 | ||
| 46022_TS_DEWT_092007.nc | 16-Nov-2024 12:01 | 1626242 | ||
| 46022_TS_DEWT_092008.nc | 16-Nov-2024 12:46 | 1464909 | ||
| 46022_TS_DEWT_092009.nc | 16-Nov-2024 13:37 | 1626957 | ||
| 46022_TS_DEWT_092010.nc | 16-Nov-2024 14:16 | 1626962 | ||
| 46022_TS_DEWT_092012.nc | 16-Nov-2024 15:38 | 1469702 | ||
| 46022_TS_DEWT_092013.nc | 16-Nov-2024 16:25 | 1464573 | ||
| 46022_TS_DEWT_092014.nc | 16-Nov-2024 16:52 | 1469289 | ||
| 46022_TS_DEWT_092015.nc | 16-Nov-2024 17:16 | 1470188 | ||
| 46022_TS_DEWT_092016.nc | 16-Nov-2024 18:02 | 1469917 | ||
| 46022_TS_DEWT_092017.nc | 16-Nov-2024 18:43 | 1469184 | ||
| 46022_TS_DEWT_092018.nc | 16-Nov-2024 19:27 | 1469159 | ||
| 46022_TS_DEWT_092020.nc | 16-Nov-2024 20:58 | 1473471 | ||
| 46022_TS_DEWT_092021.nc | 16-Nov-2024 21:53 | 1468692 | ||
| 46022_TS_DEWT_092022.nc | 16-Nov-2024 22:48 | 1469975 | ||
| 46022_TS_DEWT_092024.nc | 17-Jan-2025 12:11 | 1469699 | ||
| 46022_TS_DEWT_092025.nc | 01-Oct-2025 03:46 | 1472921 | ||
| 46022_TS_DEWT_101982.nc | 15-Nov-2024 17:57 | 1149703 | ||
| 46022_TS_DEWT_101983.nc | 15-Nov-2024 18:42 | 1469883 | ||
| 46022_TS_DEWT_101984.nc | 15-Nov-2024 19:15 | 1469428 | ||
| 46022_TS_DEWT_101985.nc | 15-Nov-2024 19:49 | 1626360 | ||
| 46022_TS_DEWT_101986.nc | 15-Nov-2024 20:28 | 1472964 | ||
| 46022_TS_DEWT_101987.nc | 15-Nov-2024 20:59 | 1476381 | ||
| 46022_TS_DEWT_101988.nc | 15-Nov-2024 21:48 | 1626816 | ||
| 46022_TS_DEWT_101989.nc | 15-Nov-2024 22:36 | 1477159 | ||
| 46022_TS_DEWT_101990.nc | 15-Nov-2024 23:15 | 1625450 | ||
| 46022_TS_DEWT_101991.nc | 16-Nov-2024 00:02 | 1475779 | ||
| 46022_TS_DEWT_101992.nc | 16-Nov-2024 00:57 | 1625507 | ||
| 46022_TS_DEWT_101993.nc | 16-Nov-2024 01:45 | 1625768 | ||
| 46022_TS_DEWT_101994.nc | 16-Nov-2024 02:30 | 1626834 | ||
| 46022_TS_DEWT_101995.nc | 16-Nov-2024 03:05 | 1626549 | ||
| 46022_TS_DEWT_101997.nc | 16-Nov-2024 04:12 | 1626872 | ||
| 46022_TS_DEWT_101998.nc | 16-Nov-2024 04:47 | 1159261 | ||
| 46022_TS_DEWT_101999.nc | 16-Nov-2024 05:33 | 1626644 | ||
| 46022_TS_DEWT_102000.nc | 16-Nov-2024 06:08 | 1626970 | ||
| 46022_TS_DEWT_102001.nc | 16-Nov-2024 06:58 | 1472929 | ||
| 46022_TS_DEWT_102002.nc | 16-Nov-2024 07:40 | 1473753 | ||
| 46022_TS_DEWT_102003.nc | 16-Nov-2024 08:30 | 1476917 | ||
| 46022_TS_DEWT_102004.nc | 16-Nov-2024 09:26 | 1477017 | ||
| 46022_TS_DEWT_102005.nc | 16-Nov-2024 10:28 | 1476664 | ||
| 46022_TS_DEWT_102006.nc | 16-Nov-2024 11:23 | 1476747 | ||
| 46022_TS_DEWT_102007.nc | 16-Nov-2024 12:04 | 1473088 | ||
| 46022_TS_DEWT_102008.nc | 16-Nov-2024 12:49 | 1476185 | ||
| 46022_TS_DEWT_102009.nc | 16-Nov-2024 13:41 | 1473174 | ||
| 46022_TS_DEWT_102010.nc | 16-Nov-2024 14:20 | 1476889 | ||
| 46022_TS_DEWT_102012.nc | 16-Nov-2024 15:42 | 1477060 | ||
| 46022_TS_DEWT_102013.nc | 16-Nov-2024 16:28 | 1477068 | ||
| 46022_TS_DEWT_102014.nc | 16-Nov-2024 16:54 | 1476921 | ||
| 46022_TS_DEWT_102015.nc | 16-Nov-2024 17:20 | 1477098 | ||
| 46022_TS_DEWT_102016.nc | 16-Nov-2024 18:05 | 1476322 | ||
| 46022_TS_DEWT_102017.nc | 16-Nov-2024 18:46 | 1626451 | ||
| 46022_TS_DEWT_102018.nc | 16-Nov-2024 19:31 | 1626027 | ||
| 46022_TS_DEWT_102020.nc | 16-Nov-2024 21:02 | 1626913 | ||
| 46022_TS_DEWT_102021.nc | 16-Nov-2024 21:57 | 1626792 | ||
| 46022_TS_DEWT_102022.nc | 16-Nov-2024 22:52 | 1472641 | ||
| 46022_TS_DEWT_102024.nc | 17-Jan-2025 14:12 | 1626870 | ||
| 46022_TS_DEWT_102025.nc | 01-Nov-2025 05:10 | 1625236 | ||
| 46022_TS_DEWT_111982.nc | 15-Nov-2024 18:01 | 1624466 | ||
| 46022_TS_DEWT_111983.nc | 15-Nov-2024 18:44 | 1626590 | ||
| 46022_TS_DEWT_111984.nc | 15-Nov-2024 19:18 | 1626588 | ||
| 46022_TS_DEWT_111985.nc | 15-Nov-2024 19:53 | 1626769 | ||
| 46022_TS_DEWT_111986.nc | 15-Nov-2024 20:31 | 1626916 | ||
| 46022_TS_DEWT_111987.nc | 15-Nov-2024 21:03 | 1624463 | ||
| 46022_TS_DEWT_111988.nc | 15-Nov-2024 21:52 | 1626834 | ||
| 46022_TS_DEWT_111989.nc | 15-Nov-2024 22:40 | 1626976 | ||
| 46022_TS_DEWT_111990.nc | 15-Nov-2024 23:19 | 1476408 | ||
| 46022_TS_DEWT_111991.nc | 16-Nov-2024 00:06 | 1476439 | ||
| 46022_TS_DEWT_111992.nc | 16-Nov-2024 01:01 | 1475683 | ||
| 46022_TS_DEWT_111993.nc | 16-Nov-2024 01:50 | 1476782 | ||
| 46022_TS_DEWT_111994.nc | 16-Nov-2024 02:34 | 1462787 | ||
| 46022_TS_DEWT_111995.nc | 16-Nov-2024 03:07 | 1476951 | ||
| 46022_TS_DEWT_111997.nc | 16-Nov-2024 04:16 | 1473379 | ||
| 46022_TS_DEWT_111998.nc | 16-Nov-2024 04:51 | 1477030 | ||
| 46022_TS_DEWT_111999.nc | 16-Nov-2024 05:38 | 1477059 | ||
| 46022_TS_DEWT_112000.nc | 16-Nov-2024 06:12 | 1476984 | ||
| 46022_TS_DEWT_112001.nc | 16-Nov-2024 07:02 | 1476262 | ||
| 46022_TS_DEWT_112002.nc | 16-Nov-2024 07:44 | 1476933 | ||
| 46022_TS_DEWT_112003.nc | 16-Nov-2024 08:34 | 1476748 | ||
| 46022_TS_DEWT_112004.nc | 16-Nov-2024 09:32 | 1476376 | ||
| 46022_TS_DEWT_112005.nc | 16-Nov-2024 10:33 | 1476118 | ||
| 46022_TS_DEWT_112006.nc | 16-Nov-2024 11:27 | 1626977 | ||
| 46022_TS_DEWT_112007.nc | 16-Nov-2024 12:07 | 1626577 | ||
| 46022_TS_DEWT_112008.nc | 16-Nov-2024 12:53 | 1468119 | ||
| 46022_TS_DEWT_112009.nc | 16-Nov-2024 13:46 | 1626864 | ||
| 46022_TS_DEWT_112010.nc | 16-Nov-2024 14:25 | 1470549 | ||
| 46022_TS_DEWT_112012.nc | 16-Nov-2024 15:46 | 1626109 | ||
| 46022_TS_DEWT_112013.nc | 16-Nov-2024 16:32 | 1626479 | ||
| 46022_TS_DEWT_112014.nc | 16-Nov-2024 16:55 | 1471000 | ||
| 46022_TS_DEWT_112015.nc | 16-Nov-2024 17:23 | 1626573 | ||
| 46022_TS_DEWT_112016.nc | 16-Nov-2024 18:08 | 1625799 | ||
| 46022_TS_DEWT_112017.nc | 16-Nov-2024 18:49 | 1625472 | ||
| 46022_TS_DEWT_112018.nc | 16-Nov-2024 19:35 | 1625649 | ||
| 46022_TS_DEWT_112019.nc | 16-Nov-2024 20:14 | 1469410 | ||
| 46022_TS_DEWT_112020.nc | 16-Nov-2024 21:06 | 1626922 | ||
| 46022_TS_DEWT_112021.nc | 16-Nov-2024 22:02 | 1626666 | ||
| 46022_TS_DEWT_112022.nc | 16-Nov-2024 22:56 | 1626967 | ||
| 46022_TS_DEWT_112023.nc | 16-Nov-2024 23:10 | 1626671 | ||
| 46022_TS_DEWT_112024.nc | 17-Jan-2025 14:12 | 1625518 | ||
| 46022_TS_DEWT_112025.nc | 01-Dec-2025 06:58 | 1625754 | ||
| 46022_TS_DEWT_121982.nc | 15-Nov-2024 18:06 | 1626911 | ||
| 46022_TS_DEWT_121983.nc | 15-Nov-2024 18:46 | 1626956 | ||
| 46022_TS_DEWT_121984.nc | 15-Nov-2024 19:21 | 1626312 | ||
| 46022_TS_DEWT_121985.nc | 15-Nov-2024 19:55 | 1626875 | ||
| 46022_TS_DEWT_121987.nc | 15-Nov-2024 21:06 | 1626085 | ||
| 46022_TS_DEWT_121988.nc | 15-Nov-2024 21:56 | 1626923 | ||
| 46022_TS_DEWT_121989.nc | 15-Nov-2024 22:45 | 1472769 | ||
| 46022_TS_DEWT_121990.nc | 15-Nov-2024 23:23 | 1476442 | ||
| 46022_TS_DEWT_121991.nc | 16-Nov-2024 00:12 | 1626176 | ||
| 46022_TS_DEWT_121992.nc | 16-Nov-2024 01:04 | 1625259 | ||
| 46022_TS_DEWT_121993.nc | 16-Nov-2024 01:55 | 1626931 | ||
| 46022_TS_DEWT_121994.nc | 16-Nov-2024 02:37 | 1626939 | ||
| 46022_TS_DEWT_121995.nc | 16-Nov-2024 03:09 | 1626631 | ||
| 46022_TS_DEWT_121997.nc | 16-Nov-2024 04:21 | 1474306 | ||
| 46022_TS_DEWT_121998.nc | 16-Nov-2024 04:55 | 1475114 | ||
| 46022_TS_DEWT_121999.nc | 16-Nov-2024 05:42 | 1471014 | ||
| 46022_TS_DEWT_122000.nc | 16-Nov-2024 06:17 | 1476934 | ||
| 46022_TS_DEWT_122001.nc | 16-Nov-2024 07:05 | 1477027 | ||
| 46022_TS_DEWT_122002.nc | 16-Nov-2024 07:48 | 1477038 | ||
| 46022_TS_DEWT_122003.nc | 16-Nov-2024 08:38 | 1476096 | ||
| 46022_TS_DEWT_122004.nc | 16-Nov-2024 09:37 | 1475843 | ||
| 46022_TS_DEWT_122005.nc | 16-Nov-2024 10:37 | 1476324 | ||
| 46022_TS_DEWT_122006.nc | 16-Nov-2024 11:30 | 1476897 | ||
| 46022_TS_DEWT_122007.nc | 16-Nov-2024 12:10 | 1476150 | ||
| 46022_TS_DEWT_122008.nc | 16-Nov-2024 12:57 | 1475963 | ||
| 46022_TS_DEWT_122009.nc | 16-Nov-2024 13:51 | 1476816 | ||
| 46022_TS_DEWT_122010.nc | 16-Nov-2024 14:29 | 1477082 | ||
| 46022_TS_DEWT_122012.nc | 16-Nov-2024 15:51 | 1477096 | ||
| 46022_TS_DEWT_122013.nc | 16-Nov-2024 16:36 | 1476918 | ||
| 46022_TS_DEWT_122015.nc | 16-Nov-2024 17:27 | 1476307 | ||
| 46022_TS_DEWT_122016.nc | 16-Nov-2024 18:12 | 1476058 | ||
| 46022_TS_DEWT_122017.nc | 16-Nov-2024 18:53 | 1626718 | ||
| 46022_TS_DEWT_122018.nc | 16-Nov-2024 19:41 | 1476984 | ||
| 46022_TS_DEWT_122019.nc | 16-Nov-2024 20:19 | 1626746 | ||
| 46022_TS_DEWT_122020.nc | 16-Nov-2024 21:11 | 1626893 | ||
| 46022_TS_DEWT_122021.nc | 16-Nov-2024 22:07 | 1473695 | ||
| 46022_TS_DEWT_122022.nc | 16-Nov-2024 23:00 | 1477784 | ||
| 46022_TS_DEWT_122023.nc | 16-Nov-2024 23:12 | 1626621 | ||
| 46022_TS_DEWT_122024.nc | 22-Jan-2025 16:09 | 1626616 | ||
| 46022_TS_DEWT_122025.nc | 01-Jan-2026 08:27 | 1626615 | ||